Content
SEND FEEDBACK

Daily
Averages
Monthly
Summary
United States of America

INARAJAN, GUAM


Home > North America > United States > Guam
Elevation: 280 feet     Latitude: 13 18N     Longitude: 144 44E

WEATHER
 
SELECT A DAY
Number of Records: 354,701;   Date Range: 1/1/95 - 11/26/14
 
SHARE

PRINT THIS DATA

[ ← Previous Day ]
WEATHER ALMANAC - AUGUST 9, 2014
[ Next Day → ]
[ °C ]   °F
Weather ElementAverageHighLow
Temperature81.3 °F85.8 °F (1:58 pm)77 °F (9:25 am)
Dewpoint76.5 °F78.8 °F (8:53 am)73.9 °F (11:58 am)
Humidity85.5 %94 % (5:23 am)75 % (10:58 am)
Barometer29.84 in29.88 in (12:53 am)29.78 in (1:58 pm)
Wind Speed5.4 mph9.2 mph (12:18 am)
Weather ElementAverage
Visibility9.5 mi
Wind DirectionE (86.9 °)

Weather ElementTotal
Precipitation0.01 in
Cooling Degree Days16.4 (Base 65)
Growing Degree Days31.4 (Base 50)
Averaged from 36 records on August 9, 2014
WEATHER CONDITIONS BREAKOUT
WIND DIRECTION BREAKOUT
WEATHER BY HOUR - AUGUST 9, 2014
[ °C ]   °F
Local TimeTemperatureDewpointHumidityBarometerVisibilityWind DirectionWind SpeedGust SpeedPrecipitationEventsConditions
12:58 AM77.7 °F75.6 °F93 %29.81 in10.0 miCalmClear
1:58 AM78.1 °F76.3 °F94 %29.79 in10.0 miCalmClear
2:58 AM77.7 °F75.4 °F92 %29.79 in10.0 miCalmClear
3:58 AM77.0 °F75.0 °F94 %29.78 in10.0 miCalmClear
4:58 AM77.7 °F75.7 °F94 %29.79 in10.0 miESE (120°)3.5 mphClear
5:58 AM77.5 °F75.4 °F93 %29.81 in10.0 miSE (130°)3.5 mphClear
6:58 AM79.0 °F76.1 °F91 %29.82 in10.0 miEast (90°)2.3 mphScattered Clouds
7:58 AM81.5 °F76.8 °F86 %29.83 in10.0 miESE (110°)6.9 mphScattered Clouds
8:31 AM80.6 °F77.0 °F89 %29.87 in10.0 miENE (60°)3.5 mphRainLight Rain
8:41 AM82.4 °F77.0 °F84 %29.87 in10.0 miEast (90°)6.9 mphScattered Clouds
8:56 AM82.4 °F77.0 °F84 %29.88 in10.0 miESE (110°)5.8 mphScattered Clouds
8:58 AM82.4 °F77.0 °F84 %29.86 in10.0 miESE (120°)6.9 mph0.00 inScattered Clouds
9:28 AM84.2 °F77.0 °F79 %29.88 in10.0 miSE (140°)5.8 mphMostly Cloudy
9:33 AM84.2 °F77.0 °F79 %29.88 in10.0 miESE (110°)5.8 mphScattered Clouds
9:58 AM82.8 °F76.6 °F82 %29.86 in10.0 miEast (100°)6.9 mphScattered Clouds
9:59 AM82.4 °F77.0 °F84 %29.88 in7.0 miESE (110°)8.1 mphRainLight Rain
10:04 AM82.4 °F77.0 °F84 %29.88 in4.0 miESE (120°)8.1 mphRainLight Rain
10:09 AM80.6 °F77.0 °F89 %29.88 in4.0 miSE (140°)4.6 mphRainLight Rain
10:14 AM80.6 °F77.0 °F89 %29.87 in7.0 miVariable4.6 mphRainLight Rain
10:17 AM82.4 °F78.8 °F89 %29.87 in10.0 miESE (120°)8.1 mphMostly Cloudy
10:27 AM82.4 °F78.8 °F89 %29.87 in10.0 miEast (100°)8.1 mphMostly Cloudy
10:32 AM82.4 °F77.0 °F84 %29.87 in10.0 miESE (110°)8.1 mphMostly Cloudy
10:58 AM81.1 °F75.6 °F83 %29.84 in10.0 miESE (110°)9.2 mph0.01 inPartly Cloudy
11:58 AM81.1 °F73.9 °F79 %29.83 in10.0 miEast (90°)8.1 mphScattered Clouds
12:58 PM85.1 °F77.4 °F78 %29.81 in10.0 miSE (140°)9.2 mphMostly Cloudy
1:58 PM85.8 °F77.2 °F75 %29.81 in10.0 miSE (130°)6.9 mphPartly Cloudy
2:58 PM85.1 °F77.4 °F78 %29.81 in10.0 miESE (110°)8.1 mphPartly Cloudy
3:58 PM83.3 °F77.0 °F81 %29.81 in10.0 miEast (90°)2.3 mphClear
4:58 PM82.8 °F75.7 °F79 %29.81 in10.0 miESE (120°)5.8 mphClear
5:58 PM82.4 °F76.5 °F82 %29.81 in10.0 miEast (100°)3.5 mphClear
6:58 PM81.1 °F76.5 °F86 %29.83 in10.0 miEast (100°)3.5 mphClear
7:58 PM79.5 °F74.5 °F84 %29.84 in10.0 miNE (50°)4.6 mphPartly Cloudy
8:58 PM81.0 °F75.7 °F84 %29.86 in10.0 miNE (50°)3.5 mphClear
9:58 PM81.0 °F76.5 °F86 %29.87 in10.0 miNE (40°)5.8 mphClear
10:58 PM79.9 °F76.5 °F89 %29.87 in10.0 miENE (60°)9.2 mphClear
11:58 PM79.7 °F75.9 °F88 %29.84 in10.0 miENE (60°)8.1 mphClear
Hourly data recorded from PGUA, located miles away from Inarajan, Guam







STORIES FROM OUR PARTNERS